Lid_Strength_Index
1 1 2 2 2 3 3 3 4 6 6 5 4 3 2 2 3 3 3 5 5 5 5 5 4 3 3 3 2 2 2 2 2 2 2 2 2 2
1 2 2 2 3 3 3 3 2 3 5 3 3 4 3 3 3 3 4 4 5 6 6 6 5 5 5 4 4 3 3 3 4 3 3 4 4 3
2 2 2 2 2 2 2 2 2 2 4 3 3 4 4 4 4 3 3 4 3 6 7 7 7 6 6 5 6 5 5 5 5 5 5 5 4 4
2 3 2 2 3 2 2 2 2 2 3 4 5 4 5 6 4 5 4 4 5 6 7 7 7 7 7 7 8 8 8 7 7 7 7 7 7 7
2 2 2 2 2 2 3 2 3 3 3 3 3 8 8 8 8 8 8 7 6 7 7 8 7 7 8 8 8 8 8 8 9 9 9 8 9 9
1 2 2 2 2 3 3 3 4 4 4 4 8 10 10 9 9 10 9 9 8 7 7 8 8 8 8 8 8 8 9 9 9 9 9 9 9 8
2 4 8 9 10 9 5 5 5 6 9 9 11 12 12 12 12 11 13 12 11 10 10 9 9 9 9 9 9 9 9 9 9 9 8 8 9 9
7 11 12 12 13 13 13 13 11 10 12 13 13 13 13 13 13 13 13 14 14 10 11 12 11 12 11 10 10 9 9 9 8 8 8 8 8 9
10 12 13 13 13 13 14 14 14 14 15 12 14 14 14 14 13 14 15 14 14 12 12 14 13 13 12 11 10 10 9 9 9 9 9 9 9 9
13 13 14 14 14 14 14 16 15 15 14 13 14 14 14 14 13 14 15 16 15 14 13 18 16 16 15 13 11 10 10 10 10 10 10 9 9 9
14 15 15 15 14 13 16 17 17 17 14 13 14 14 15 15 16 17 17 17 18 17 16 17 18 17 17 16 14 12 13 13 12 12 11 11 10 10
16 16 15 15 15 15 16 16 17 17 16 15 15 15 15 15 15 16 17 18 19 20 17 19 18 19 20 17 17 16 16 14 13 13 12 12 11 11
17 17 16 16 16 16 16 16 17 16 16 16 16 17 17 17 17 17 17 18 19 19 17 19 19 19 19 19 18 17 17 16 15 14 13 12 12 11
18 18 17 17 17 16 17 16 16 17 17 17 18 19 19 19 18 18 17 17 17 18 17 17 20 19 19 19 20 17 16 16 16 16 15 13 11 10
17 17 17 17 16 17 17 17 17 18 18 19 20 20 20 18 18 18 17 18 18 18 17 17 18 18 18 19 19 18 18 16 15 16 15 15 13 11
17 17 18 18 18 17 17 17 17 18 19 20 20 20 19 19 20 20 21 21 21 20 18 17 17 18 19 19 19 19 18 19 17 16 15 14 12 10
18 18 18 18 18 19 19 19 19 19 20 20 21 21 21 21 21 20 20 21 22 22 21 19 18 18 18 19 20 19 18 18 16 15 14 14 12 9
18 19 20 20 20 20 20 21 20 20 21 21 21 21 22 22 22 21 21 22 23 22 22 21 21 21 20 17 15 18 17 17 16 14 13 13 11 9
19 20 21 21 21 21 21 22 22 21 21 22 22 23 23 23 23 23 22 23 23 23 22 21 21 21 22 23 17 13 16 15 15 14 12 12 11 9
20 21 22 22 22 22 22 22 22 23 23 23 24 25 26 23 23 23 23 28 24 23 21 20 19 19 19 20 18 15 11 14 14 14 13 10 8 6
22 23 23 22 22 22 23 24 25 25 26 27 26 27 31 26 27 24 24 25 24 21 21 20 17 14 14 14 18 17 14 10 10 11 11 11 10 8
22 22 22 23 23 23 26 27 27 27 28 28 32 33 33 29 29 27 26 24 21 20 19 17 15 14 15 16 17 17 14 12 10 8 7 7 10 11
24 24 24 25 25 26 25 28 29 35 28 28 29 28 34 28 24 24 24 21 20 19 18 18 16 15 15 15 16 15 14 13 11 11 9 7 6 5